Weather History for KIRS - September, 2013

Change the Weather History Date:

Monday, September 23, 2013

  Actual Average (KHAI) Record (KHAI)
Temperature  
Mean Temperature 52 °F -  
Max Temperature 64 °F 69 °F 87 °F (2010)
Min Temperature 39 °F 46 °F 31 °F (1954)
Degree Days  
Heating Degree Days 14    
Growing Degree Days 2 (Base 50)    
Moisture  
Dew Point 43 °F    
Average Humidity 75    
Maximum Humidity 100    
Minimum Humidity 49    
Precipitation  
Precipitation 0.00 in - - ()
Sea Level Pressure  
Sea Level Pressure 30.11 in    
Wind  
Wind Speed 5 mph (East)    
Max Wind Speed 12 mph    
Max Gust Speed -    
Visibility 10 miles    
Events      
Averages and records for this station are not official NWS values.
T = Trace of Precipitation, MM = Missing Value Source: NWS Daily Summary

Daily Weather History Graph

Daily Weather History Graph

Search for Another Location

Airport or City:

Trip Planner

Search our weather history database for the weather conditions in past years. The results will help you decide how hot, cold, wet, or windy it might be!

Date:

Astronomy

Sep. 23, 2013 Rise Set
Actual Time 7:30 AM EDT 7:36 PM EDT
Civil Twilight 7:02 AM EDT 8:04 PM EDT
Nautical Twilight 6:30 AM EDT 8:37 PM EDT
Astronomical Twilight 5:56 AM EDT 9:10 PM EDT
Moon 10:04 PM EDT (9/23) 11:53 AM EDT (9/23)
Length of Visible Light 13h 01m
Length of Day
12h 06m
Waning Gibbous, 81% of the Moon is Illuminated
Sep 23
Waning Gibbous
Sep 26
Last Quarter
Oct 4
New
Oct 11
First Quarter
Oct 18
Full

Hourly Weather History & Observations

Time (EDT) Temp. Windchill Dew Point Humidity Pressure Visibility Wind Dir Wind Speed Gust Speed Precip Events Conditions
12:14 AM 42.8 °F 40.1 °F 41.0 °F 93% 30.07 in 10.0 mi ENE 4.6 mph - N/A   Clear
12:35 AM 42.8 °F 40.1 °F 41.0 °F 93% 30.07 in 10.0 mi ENE 4.6 mph - N/A   Clear
12:54 AM 42.8 °F 40.1 °F 41.0 °F 93% 30.07 in 10.0 mi ENE 4.6 mph - N/A   Clear
1:15 AM 42.8 °F 40.1 °F 39.2 °F 87% 30.08 in 10.0 mi ENE 4.6 mph - N/A   Clear
1:35 AM 42.8 °F 41.1 °F 41.0 °F 93% 30.09 in 10.0 mi East 3.5 mph - N/A   Clear
1:54 AM 42.8 °F 41.1 °F 41.0 °F 93% 30.09 in 10.0 mi ENE 3.5 mph - N/A   Clear
2:15 AM 42.8 °F 40.1 °F 39.2 °F 87% 30.09 in 10.0 mi ENE 4.6 mph - N/A   Clear
2:34 AM 42.8 °F 40.1 °F 39.2 °F 87% 30.09 in 10.0 mi ENE 4.6 mph - N/A   Clear
2:54 AM 42.8 °F 41.1 °F 39.2 °F 87% 30.09 in 10.0 mi ENE 3.5 mph - N/A   Clear
3:15 AM 42.8 °F 40.1 °F 39.2 °F 87% 30.09 in 10.0 mi ENE 4.6 mph - N/A   Clear
3:35 AM 42.8 °F 41.1 °F 39.2 °F 87% 30.09 in 10.0 mi ENE 3.5 mph - N/A   Clear
3:54 AM 42.8 °F - 39.2 °F 87% 30.09 in 10.0 mi Calm Calm - N/A   Clear
4:15 AM 42.8 °F 41.1 °F 39.2 °F 87% 30.09 in 10.0 mi ENE 3.5 mph - N/A   Clear
4:35 AM 42.8 °F 41.1 °F 39.2 °F 87% 30.09 in 10.0 mi ENE 3.5 mph - N/A   Clear
4:55 AM 41.0 °F 39.0 °F 39.2 °F 93% 30.09 in 10.0 mi NE 3.5 mph - N/A   Clear
5:15 AM 41.0 °F 39.0 °F 39.2 °F 93% 30.09 in 10.0 mi ENE 3.5 mph - N/A   Clear
5:34 AM 41.0 °F 38.0 °F 39.2 °F 93% 30.10 in 10.0 mi ENE 4.6 mph - N/A   Clear
5:55 AM 41.0 °F 39.0 °F 39.2 °F 93% 30.09 in 10.0 mi ENE 3.5 mph - N/A   Clear
6:15 AM 41.0 °F 39.0 °F 39.2 °F 93% 30.10 in 10.0 mi ENE 3.5 mph - N/A   Clear
6:34 AM 41.0 °F 39.0 °F 39.2 °F 93% 30.10 in 10.0 mi ENE 3.5 mph - N/A   Clear
6:55 AM 39.2 °F - 39.2 °F 100% 30.11 in 10.0 mi Calm Calm - N/A   Clear
7:15 AM 41.0 °F 39.0 °F 39.2 °F 93% 30.12 in 10.0 mi ENE 3.5 mph - N/A   Scattered Clouds
7:34 AM 42.8 °F - 39.2 °F 87% 30.13 in 10.0 mi Calm Calm - N/A   Mostly Cloudy
7:55 AM 41.0 °F 39.0 °F 39.2 °F 93% 30.14 in 10.0 mi ENE 3.5 mph - N/A   Scattered Clouds
8:15 AM 42.8 °F 41.1 °F 41.0 °F 93% 30.14 in 10.0 mi East 3.5 mph - N/A   Clear
8:34 AM 44.6 °F 41.4 °F 42.8 °F 93% 30.15 in 10.0 mi East 5.8 mph - N/A   Clear
8:55 AM 46.4 °F 43.5 °F 42.8 °F 87% 30.15 in 10.0 mi East 5.8 mph - N/A   Clear
9:15 AM 48.2 °F - 44.6 °F 87% 30.15 in 10.0 mi East 5.8 mph - N/A   Clear
9:34 AM 50.0 °F - 44.6 °F 82% 30.15 in 10.0 mi East 8.1 mph - N/A   Clear
9:55 AM 51.8 °F - 46.4 °F 82% 30.16 in 10.0 mi East 6.9 mph - N/A   Clear
10:14 AM 53.6 °F - 46.4 °F 77% 30.15 in 10.0 mi ESE 8.1 mph - N/A   Clear
10:35 AM 55.4 °F - 46.4 °F 72% 30.15 in 10.0 mi ESE 8.1 mph - N/A   Clear
10:55 AM 55.4 °F - 48.2 °F 77% 30.15 in 10.0 mi ESE 6.9 mph - N/A   Clear
11:14 AM 57.2 °F - 46.4 °F 67% 30.15 in 10.0 mi SE 11.5 mph - N/A   Clear
11:35 AM 57.2 °F - 46.4 °F 67% 30.15 in 10.0 mi SSE 6.9 mph - N/A   Clear
11:55 AM 57.2 °F - 46.4 °F 67% 30.14 in 10.0 mi SE 11.5 mph - N/A   Scattered Clouds
12:14 PM 60.8 °F - 46.4 °F 59% 30.15 in 10.0 mi SE 8.1 mph - N/A   Scattered Clouds
12:35 PM 60.8 °F - 46.4 °F 59% 30.15 in 10.0 mi ESE 6.9 mph - N/A   Mostly Cloudy
12:55 PM 59.0 °F - 46.4 °F 63% 30.15 in 10.0 mi SE 6.9 mph - N/A   Overcast
1:14 PM 60.8 °F - 46.4 °F 59% 30.15 in 10.0 mi ESE 9.2 mph - N/A   Overcast
1:35 PM 60.8 °F - 46.4 °F 59% 30.15 in 10.0 mi ESE 5.8 mph - N/A   Mostly Cloudy
1:55 PM 60.8 °F - 44.6 °F 55% 30.14 in 10.0 mi ESE 6.9 mph - N/A   Mostly Cloudy
2:14 PM 60.8 °F - 44.6 °F 55% 30.14 in 10.0 mi East 9.2 mph - N/A   Mostly Cloudy
2:35 PM 60.8 °F - 46.4 °F 59% 30.13 in 10.0 mi East 6.9 mph - N/A   Mostly Cloudy
2:54 PM 62.6 °F - 44.6 °F 52% 30.13 in 10.0 mi ENE 8.1 mph - N/A   Scattered Clouds
3:15 PM 62.6 °F - 44.6 °F 52% 30.12 in 10.0 mi SSE 5.8 mph - N/A   Scattered Clouds
3:35 PM 62.6 °F - 44.6 °F 52% 30.12 in 10.0 mi ESE 6.9 mph - N/A   Clear
3:54 PM 62.6 °F - 44.6 °F 52% 30.11 in 10.0 mi ESE 5.8 mph - N/A   Clear
4:15 PM 62.6 °F - 44.6 °F 52% 30.11 in 10.0 mi East 3.5 mph - N/A   Clear
4:35 PM 64.4 °F - 44.6 °F 49% 30.10 in 10.0 mi East 6.9 mph - N/A   Clear
4:54 PM 64.4 °F - 44.6 °F 49% 30.10 in 10.0 mi East 9.2 mph - N/A   Clear
5:15 PM 64.4 °F - 44.6 °F 49% 30.10 in 10.0 mi SSE 4.6 mph - N/A   Clear
5:35 PM 62.6 °F - 44.6 °F 52% 30.10 in 10.0 mi ESE 8.1 mph - N/A   Clear
5:54 PM 62.6 °F - 44.6 °F 52% 30.10 in 10.0 mi ESE 4.6 mph - N/A   Clear
6:15 PM 62.6 °F - 44.6 °F 52% 30.10 in 10.0 mi East 6.9 mph - N/A   Clear
6:35 PM 62.6 °F - 44.6 °F 52% 30.10 in 10.0 mi ESE 5.8 mph - N/A   Clear
6:54 PM 60.8 °F - 44.6 °F 55% 30.10 in 10.0 mi ESE 4.6 mph - N/A   Clear
7:15 PM 59.0 °F - 44.6 °F 59% 30.10 in 10.0 mi ESE 5.8 mph - N/A   Clear
7:34 PM 57.2 °F - 44.6 °F 63% 30.10 in 10.0 mi East 4.6 mph - N/A   Clear
7:54 PM 53.6 °F - 44.6 °F 72% 30.10 in 10.0 mi East 4.6 mph - N/A   Clear
8:15 PM 53.6 °F - 44.6 °F 72% 30.10 in 10.0 mi East 3.5 mph - N/A   Clear
8:34 PM 51.8 °F - 44.6 °F 76% 30.10 in 10.0 mi East 4.6 mph - N/A   Clear
8:54 PM 51.8 °F - 44.6 °F 76% 30.11 in 10.0 mi East 4.6 mph - N/A   Clear
9:15 PM 51.8 °F - 44.6 °F 76% 30.11 in 10.0 mi ESE 4.6 mph - N/A   Clear
9:34 PM 51.8 °F - 44.6 °F 76% 30.11 in 10.0 mi ESE 4.6 mph - N/A   Clear
9:55 PM 50.0 °F - 44.6 °F 82% 30.11 in 10.0 mi East 4.6 mph - N/A   Clear
10:15 PM 50.0 °F - 44.6 °F 82% 30.11 in 10.0 mi East 5.8 mph - N/A   Clear
10:34 PM 50.0 °F - 44.6 °F 82% 30.11 in 10.0 mi East 4.6 mph - N/A   Clear
10:55 PM 48.2 °F - 44.6 °F 87% 30.11 in 10.0 mi East 4.6 mph - N/A   Clear
11:15 PM 48.2 °F - 44.6 °F 87% 30.11 in 10.0 mi East 4.6 mph - N/A   Clear
11:34 PM 48.2 °F - 44.6 °F 87% 30.11 in 10.0 mi ESE 5.8 mph - N/A   Clear
11:55 PM 48.2 °F - 44.6 °F 87% 30.11 in 10.0 mi ESE 5.8 mph - N/A   Clear